North Bennington, VT

3:07 AM EDT on September 27, 2016 (GMT -0400)
Morse State

Weather History for KDDH - July, 2012

Change the Weather History Date:

Tuesday, July 10, 2012

  Actual Average Record
Temperature  
Mean Temperature 64 °F 68 °F  
Max Temperature 82 °F 80 °F 90 °F (2007)
Min Temperature 46 °F 57 °F 46 °F (2002)
Degree Days  
Heating Degree Days 1 1  
Month to date heating degree days 1 10  
Since 1 June heating degree days 86 107  
Since 1 July heating degree days 1 10  
Cooling Degree Days 0 4  
Month to date cooling degree days 43 39  
Year to date cooling degree days 156 111  
Since 1 June cooling degree days 108 97  
Growing Degree Days 14 (Base 50)    
Moisture  
Dew Point 50 °F    
Average Humidity 61    
Maximum Humidity 93    
Minimum Humidity 28    
Precipitation  
Precipitation 0.00 in 0.14 in 1.11 in (2013)
Month to date precipitation 0.30 1.34  
Year to date precipitation 14.32 20.54  
Sea Level Pressure  
Sea Level Pressure 30.05 in    
Wind  
Wind Speed 1 mph (East)    
Max Wind Speed 5 mph    
Max Gust Speed -    
Visibility 10 miles    
Events      
T = Trace of Precipitation, MM = Missing Value Source: NWS Daily Summary

Daily Weather History Graph

Daily Weather History Graph

Search for Another Location

Airport or City:

Trip Planner

Search our weather history database for the weather conditions in past years. The results will help you decide how hot, cold, wet, or windy it might be!

Date:

Astronomy

Jul. 10, 2012 Rise Set
Actual Time 5:24 AM EDT 8:32 PM EDT
Civil Twilight 4:49 AM EDT 9:06 PM EDT
Nautical Twilight 4:05 AM EDT 9:50 PM EDT
Astronomical Twilight 3:12 AM EDT 10:43 PM EDT
Moon No Moon Rise 1:00 PM EDT (7/10)
Length of Visible Light 16h 16m
Length of Day
15h 08m
Waning Gibbous, 54% of the Moon is Illuminated
Jul 10
Waning Gibbous
Jul 10
Last Quarter
Jul 19
New
Jul 26
First Quarter
Aug 1
Full

Hourly Weather History & Observations

Time (EDT) Temp. Dew Point Humidity Pressure Visibility Wind Dir Wind Speed Gust Speed Precip Events Conditions
12:54 AM 51.1 °F 46.9 °F 86% 30.02 in 10.0 mi Calm Calm - N/A   Clear
1:54 AM 51.1 °F 46.0 °F 83% 30.02 in 10.0 mi ESE 3.5 mph - N/A   Clear
2:54 AM 50.0 °F 46.9 °F 89% 30.01 in 10.0 mi Calm Calm - N/A   Clear
3:54 AM 48.9 °F 46.0 °F 90% 30.03 in 10.0 mi Calm Calm - N/A   Clear
4:54 AM 48.0 °F 45.0 °F 89% 30.04 in 10.0 mi Calm Calm - N/A   Mostly Cloudy
5:54 AM 48.0 °F 45.0 °F 89% 30.05 in 10.0 mi Calm Calm - N/A   Clear
6:54 AM 53.1 °F 50.0 °F 89% 30.06 in 10.0 mi Calm Calm - N/A   Clear
7:54 AM 62.1 °F 50.0 °F 65% 30.06 in 10.0 mi Calm Calm - N/A   Clear
8:54 AM 64.9 °F 53.1 °F 65% 30.07 in 10.0 mi Calm Calm - N/A   Mostly Cloudy
9:54 AM 71.1 °F 48.9 °F 45% 30.07 in 10.0 mi Calm Calm - N/A   Clear
10:54 AM 73.9 °F 48.9 °F 41% 30.08 in 10.0 mi Variable 3.5 mph - N/A   Mostly Cloudy
11:54 AM 77.0 °F 46.0 °F 33% 30.07 in 10.0 mi Calm Calm - N/A   Partly Cloudy
12:54 PM 75.9 °F 46.9 °F 36% 30.06 in 10.0 mi WNW 4.6 mph - N/A   Clear
1:54 PM 78.1 °F 46.0 °F 32% 30.04 in 10.0 mi Calm Calm - N/A   Clear
2:54 PM 80.1 °F 45.0 °F 29% 30.03 in 10.0 mi Variable 3.5 mph - N/A   Clear
3:54 PM 81.0 °F 46.0 °F 29% 30.02 in 10.0 mi Variable 3.5 mph - N/A   Clear
4:54 PM 80.1 °F 46.9 °F 31% 30.02 in 10.0 mi Calm Calm - N/A   Overcast
5:54 PM 78.1 °F 53.1 °F 42% 30.04 in 10.0 mi North 4.6 mph - N/A   Scattered Clouds
6:54 PM 73.0 °F 55.0 °F 53% 30.04 in 10.0 mi Calm Calm - N/A   Clear
7:54 PM 69.1 °F 59.0 °F 70% 30.05 in 10.0 mi Calm Calm - N/A   Scattered Clouds
8:54 PM 63.0 °F 55.0 °F 75% 30.07 in 8.0 mi South 3.5 mph - N/A   Partly Cloudy
9:54 PM 61.0 °F 55.0 °F 81% 30.09 in 10.0 mi Calm Calm - N/A   Partly Cloudy
10:54 PM 62.1 °F 55.0 °F 78% 30.10 in 10.0 mi Calm Calm - N/A   Overcast
11:54 PM 60.1 °F 55.0 °F 83% 30.10 in 10.0 mi Calm Calm - N/A   Scattered Clouds